Tracking 35055 objects as of 18-Aug-2026
HD Live streaming from Space Station
objects crossing your sky now

SALYUT 7 DEB


SALYUT 7 DEB is no longer on orbit


NORAD ID: 15283
Int'l Code: 1982-033DP
Launch date: April 19, 1982
Source: Commonwealth of Independent States (former USSR) (CIS)
Launch site: TYURATAM MISSILE AND SPACE COMPLEX (TTMTR)
Decay date: 1985-02-14

Note: This is SATELLITE DEBRIS
Your satellite tracking list
Your tracking list is empty




NASA's NSSDC Master Catalog

Two Line Element Set (TLE):
1 15283U 82033 DP 85045.42384679  .09055508 +55166-4 +91965-3 0  9992
2 15283 051.5901 203.5392 0009765 306.3473 057.0088 16.36974429163132
Source of the keplerian elements: AFSPC